Flag for Greece Weather past 2 weeks in Athens, Greece

Now
97 °F

Sunny.


Feels Like: 94 °F
Forecast: 73 / 97 °F
Wind: 13 mph from Southwest

Location: Elefsis Airport

Current Time: Aug 23, 2014 at 5:13:04 PM

Latest Report: Aug 23, 2014 at 4:20 PM


Visibility: 10 mi

Pressure: 29.86 "Hg

Humidity: 20%

Dew point: 50 °F

Location of AthensLocation

Historic Weather in Athens — Graph

°F

Athens temperature yesterday

Maximum temperature yesterday: 97 °F (at 1:20 PM)
Minimum temperature yesterday: 72 °F (at 6:20 AM)
Average temperature yesterday: 84 °F

Past Weeks' High & Low Weather Summary

 TemperatureHumidityPressure
High102 °F (Aug 16, 3:50 PM)74% (Aug 16, 2:20 AM)30.01 "Hg (Aug 16, 2:20 AM)
Low68 °F (Aug 21, 6:20 AM)9% (Aug 16, 3:20 PM)29.65 "Hg (Aug 17, 4:50 PM)
Average85 °F37%29.87 "Hg
* Reported Aug 8 3:20 PM — Aug 23 3:50 PM, Athens, Weather by CustomWeather, © 2014

Note: Actual official high and low records may vary slightly from our data, if they occured in-between our weather recording intervals... More about our weather records

Advertising

Athens weather history for previous 24 hours

 ConditionsComfort  
Time TempWeatherWind HumidityBarometerVisibility
3:50 PM
Aug 23
97 °FSunny.13 mph19%29.86 "Hg10 mi
3:20 PM99 °FSunny.12 mph17%29.86 "Hg10 mi
2:50 PM99 °FSunny.10 mph16%29.89 "Hg10 mi
2:20 PM97 °FSunny.12 mph20%29.89 "Hg10 mi
1:50 PM95 °FSunny.12 mph25%29.89 "Hg10 mi
1:20 PM93 °FSunny.10 mph30%29.89 "Hg10 mi
12:50 PM95 °FSunny.12 mph25%29.89 "Hg10 mi
12:20 PM93 °FSunny.9 mph30%29.89 "Hg10 mi
11:50 AM93 °FSunny.8 mph30%29.89 "Hg10 mi
11:20 AM93 °FSunny.6 mph28%29.92 "Hg10 mi
10:50 AM91 °FSunny.5 mph28%29.92 "Hg10 mi
10:20 AM90 °FSunny.5 mph26%29.92 "Hg10 mi
9:50 AM88 °FSunny.6 mph31%29.92 "Hg10 mi
9:20 AM88 °FSunny.No wind29%29.89 "Hg10 mi
8:50 AM84 °FSunny.No wind31%29.89 "Hg10 mi
8:20 AM81 °FSunny.No wind32%29.89 "Hg10 mi
7:50 AM75 °FSunny.No wind41%29.89 "Hg10 mi
7:20 AM73 °FClear.No wind44%29.89 "Hg10 mi
6:50 AM75 °FClear.No wind50%29.89 "Hg10 mi
6:20 AM73 °FClear.No wind50%29.89 "Hg10 mi
4:50 AM77 °FClear.No wind54%29.89 "Hg10 mi
4:20 AM75 °FClear.No wind54%29.89 "Hg10 mi
3:50 AM75 °FClear.No wind54%29.89 "Hg10 mi
2:50 AM77 °FClear.No wind57%29.89 "Hg10 mi
2:20 AM77 °FClear.No wind54%29.89 "Hg10 mi
1:50 AM77 °FClear.No wind54%29.89 "Hg10 mi
1:20 AM77 °FClear.No wind54%29.92 "Hg10 mi
12:50 AM79 °FClear.No wind54%29.92 "Hg10 mi
12:20 AM79 °FClear.No wind54%29.92 "Hg10 mi
11:50 PM
Aug 22
79 °FClear.No wind54%29.92 "Hg10 mi
11:20 PM79 °FClear.No wind54%29.92 "Hg10 mi
10:50 PM81 °FClear.No wind54%29.92 "Hg10 mi
10:20 PM82 °FClear.No wind62%29.92 "Hg10 mi
9:50 PM82 °FClear.No wind62%29.92 "Hg10 mi
9:20 PM84 °FClear.No wind55%29.92 "Hg10 mi
8:50 PM84 °FSunny.No wind55%29.92 "Hg10 mi
8:20 PM86 °FSunny.No wind52%29.89 "Hg10 mi
7:50 PM86 °FSunny.6 mph52%29.89 "Hg10 mi
6:20 PM91 °FPassing clouds.8 mph32%29.89 "HgN/A
5:50 PM91 °FPassing clouds.9 mph32%29.89 "HgN/A
5:20 PM93 °FSunny.12 mph32%29.89 "Hg10 mi
Weather by CustomWeather, © 2014

See weather overviewHow to use our weather pages